Location: Hillern
(53.0557°N, 9.8577°E)
Time: 01:16:38
(UTC+00:00)

ALOS 2 - Pass Details

Date: 19 May 2025
Orbit: 630 x 632 km, 97.9° (Epoch: 23 June)

Event Time Altitude Azimuth Distance (km) Brightness Sun altitude
Exits shadow 22:18:01 27° 145° (SE) 1,236 3.6 -15.9°
Maximum altitude 22:20:21 64° 71° (ENE) 706 2.8 -15.9°
Drops below altitude 10° 22:24:43 10° 351° (N) 2,029 6.6 -16.1°
Sets 22:26:57 0° 348° (NNW) 2,942 7.9 -16.2°
